Time,TemperatureF,DewpointF,PressureIn,WindDirection,WindDirectionDegrees,WindSpeedMPH,WindSpeedGustMPH,Humidity,HourlyPrecipIn,Conditions,Clouds,dailyrainin,SoftwareType,DateUTC
2013-09-27 00:09:00,59.7,58.0,29.48,SSW,207,0.0,0.0,95,0.00,,,0.00,weatherlink.com 1.10,2013-09-27 05:09:00,
2013-09-27 00:24:00,59.5,58.0,29.48,SSW,207,0.0,0.0,95,0.00,,,0.00,weatherlink.com 1.10,2013-09-27 05:24:00,
2013-09-27 00:39:00,59.3,58.0,29.48,SSW,207,0.0,0.0,95,0.00,,,0.00,weatherlink.com 1.10,2013-09-27 05:39:00,
2013-09-27 00:54:00,59.0,58.0,29.48,SSW,207,0.0,0.0,95,0.00,,,0.00,weatherlink.com 1.10,2013-09-27 05:54:00,
2013-09-27 01:09:00,58.7,57.0,29.48,SSW,207,0.0,0.0,95,0.00,,,0.00,weatherlink.com 1.10,2013-09-27 06:09:00,
2013-09-27 01:24:00,58.5,57.0,29.48,SSW,207,0.0,0.0,95,0.00,,,0.00,weatherlink.com 1.10,2013-09-27 06:24:00,
2013-09-27 01:39:00,58.2,57.0,29.48,SSW,207,0.0,0.0,95,0.00,,,0.00,weatherlink.com 1.10,2013-09-27 06:39:00,
2013-09-27 01:54:00,58.0,57.0,29.49,SSW,207,0.0,0.0,95,0.00,,,0.00,weatherlink.com 1.10,2013-09-27 06:54:00,
2013-09-27 02:09:00,57.7,56.0,29.48,SSW,207,0.0,0.0,95,0.00,,,0.00,weatherlink.com 1.10,2013-09-27 07:09:00,
2013-09-27 02:24:00,57.5,56.0,29.48,SSW,207,0.0,0.0,95,0.00,,,0.00,weatherlink.com 1.10,2013-09-27 07:24:00,
2013-09-27 02:39:00,57.5,56.0,29.49,SSW,207,0.0,0.0,95,0.00,,,0.00,weatherlink.com 1.10,2013-09-27 07:39:00,
2013-09-27 02:54:00,57.3,56.0,29.49,SSW,207,0.0,0.0,95,0.00,,,0.00,weatherlink.com 1.10,2013-09-27 07:54:00,
2013-09-27 03:09:00,57.1,56.0,29.49,SSW,207,0.0,0.0,95,0.00,,,0.00,weatherlink.com 1.10,2013-09-27 08:09:00,
2013-09-27 03:24:00,57.0,56.0,29.49,SSW,207,0.0,0.0,95,0.00,,,0.00,weatherlink.com 1.10,2013-09-27 08:24:00,
2013-09-27 03:39:00,56.7,55.0,29.49,SSW,207,0.0,0.0,95,0.00,,,0.00,weatherlink.com 1.10,2013-09-27 08:39:00,
2013-09-27 03:54:00,56.5,55.0,29.49,SSW,207,0.0,0.0,95,0.00,,,0.00,weatherlink.com 1.10,2013-09-27 08:54:00,
2013-09-27 04:09:00,56.4,55.0,29.49,SSW,207,0.0,0.0,95,0.00,,,0.00,weatherlink.com 1.10,2013-09-27 09:09:00,
2013-09-27 04:24:00,56.2,55.0,29.49,SSW,207,0.0,0.0,95,0.00,,,0.00,weatherlink.com 1.10,2013-09-27 09:24:00,
2013-09-27 04:39:00,56.0,55.0,29.50,SSW,207,0.0,0.0,95,0.00,,,0.00,weatherlink.com 1.10,2013-09-27 09:39:00,
2013-09-27 04:54:00,55.9,55.0,29.50,SSW,207,0.0,0.0,95,0.00,,,0.00,weatherlink.com 1.10,2013-09-27 09:54:00,
2013-09-27 05:09:00,56.0,55.0,29.52,SSW,207,0.0,0.0,96,0.00,,,0.00,weatherlink.com 1.10,2013-09-27 10:09:00,
2013-09-27 05:24:00,56.2,55.0,29.52,SSW,207,0.0,0.0,96,0.00,,,0.00,weatherlink.com 1.10,2013-09-27 10:24:00,
2013-09-27 05:39:00,56.1,55.0,29.53,SSW,207,0.0,0.0,96,0.00,,,0.00,weatherlink.com 1.10,2013-09-27 10:39:00,
2013-09-27 05:54:00,56.0,55.0,29.53,SSW,207,0.0,0.0,96,0.00,,,0.00,weatherlink.com 1.10,2013-09-27 10:54:00,
2013-09-27 06:09:00,56.2,55.0,29.54,SSW,207,0.0,0.0,96,0.00,,,0.00,weatherlink.com 1.10,2013-09-27 11:09:00,
2013-09-27 06:24:00,56.2,55.0,29.55,SSW,207,0.0,0.0,96,0.00,,,0.00,weatherlink.com 1.10,2013-09-27 11:24:00,
2013-09-27 06:39:00,56.1,55.0,29.56,SSW,207,0.0,0.0,96,0.00,,,0.00,weatherlink.com 1.10,2013-09-27 11:39:00,
2013-09-27 06:55:00,55.9,55.0,29.56,SSW,207,0.0,0.0,96,0.00,,,0.00,weatherlink.com 1.10,2013-09-27 11:55:00,
2013-09-27 07:10:00,55.9,55.0,29.57,SSW,207,0.0,0.0,96,0.00,,,0.00,weatherlink.com 1.10,2013-09-27 12:10:00,
2013-09-27 07:25:00,55.9,55.0,29.57,SSW,207,0.0,0.0,96,0.00,,,0.00,weatherlink.com 1.10,2013-09-27 12:25:00,
2013-09-27 07:40:00,56.0,55.0,29.58,SSW,207,0.0,0.0,96,0.00,,,0.00,weatherlink.com 1.10,2013-09-27 12:40:00,
2013-09-27 07:55:00,56.5,55.0,29.58,SSW,207,0.0,0.0,96,0.00,,,0.00,weatherlink.com 1.10,2013-09-27 12:55:00,
2013-09-27 08:10:00,57.5,57.0,29.59,SSW,207,0.0,0.0,97,0.00,,,0.00,weatherlink.com 1.10,2013-09-27 13:10:00,
2013-09-27 08:25:00,58.6,58.0,29.59,SSW,207,0.0,0.0,97,0.00,,,0.00,weatherlink.com 1.10,2013-09-27 13:25:00,
2013-09-27 08:40:00,60.1,59.0,29.59,SSW,207,0.0,0.0,97,0.00,,,0.00,weatherlink.com 1.10,2013-09-27 13:40:00,
2013-09-27 08:55:00,61.9,61.0,29.59,SSW,200,0.0,2.0,97,0.00,,,0.00,weatherlink.com 1.10,2013-09-27 13:55:00,
2013-09-27 09:10:00,63.3,63.0,29.60,SSW,206,0.0,0.0,97,0.00,,,0.00,weatherlink.com 1.10,2013-09-27 14:10:00,
2013-09-27 09:25:00,63.8,63.0,29.60,SSW,210,0.0,3.0,97,0.00,,,0.00,weatherlink.com 1.10,2013-09-27 14:25:00,
2013-09-27 09:40:00,64.4,64.0,29.60,SW,215,0.0,3.0,97,0.00,,,0.00,weatherlink.com 1.10,2013-09-27 14:40:00,
2013-09-27 09:55:00,65.2,63.0,29.61,SW,217,0.0,3.0,92,0.00,,,0.00,weatherlink.com 1.10,2013-09-27 14:55:00,
2013-09-27 10:10:00,66.3,63.0,29.60,SSW,213,0.0,1.0,90,0.00,,,0.00,weatherlink.com 1.10,2013-09-27 15:10:00,
2013-09-27 10:25:00,67.8,63.0,29.61,South,182,4.0,6.0,83,0.00,,,0.00,weatherlink.com 1.10,2013-09-27 15:25:00,
2013-09-27 10:40:00,69.2,64.0,29.61,SSW,205,0.0,2.0,82,0.00,,,0.00,weatherlink.com 1.10,2013-09-27 15:40:00,
2013-09-27 10:55:00,69.8,64.0,29.61,WSW,246,0.0,5.0,81,0.00,,,0.00,weatherlink.com 1.10,2013-09-27 15:55:00,
2013-09-27 11:10:00,70.7,65.0,29.61,SSW,194,0.0,2.0,81,0.00,,,0.00,weatherlink.com 1.10,2013-09-27 16:10:00,
2013-09-27 11:26:00,71.3,61.0,29.60,SSW,193,5.0,5.0,70,0.00,,,0.00,weatherlink.com 1.10,2013-09-27 16:26:00,
2013-09-27 11:40:00,72.3,62.0,29.60,West,269,0.0,5.0,71,0.00,,,0.00,weatherlink.com 1.10,2013-09-27 16:40:00,
2013-09-27 11:55:00,73.1,61.0,29.59,SW,216,0.0,7.0,67,0.00,,,0.00,weatherlink.com 1.10,2013-09-27 16:55:00,
2013-09-27 12:10:00,74.2,63.0,29.59,South,190,3.0,5.0,69,0.00,,,0.00,weatherlink.com 1.10,2013-09-27 17:10:00,
2013-09-27 12:25:00,75.1,64.0,29.58,SSW,209,0.0,3.0,68,0.00,,,0.00,weatherlink.com 1.10,2013-09-27 17:25:00,
2013-09-27 12:40:00,75.7,63.0,29.57,West,278,0.0,3.0,64,0.00,,,0.00,weatherlink.com 1.10,2013-09-27 17:40:00,
2013-09-27 12:56:00,76.2,62.0,29.57,NW,326,0.0,3.0,62,0.00,,,0.00,weatherlink.com 1.10,2013-09-27 17:56:00,
2013-09-27 13:11:00,75.7,60.0,29.56,West,261,0.0,2.0,59,0.00,,,0.00,weatherlink.com 1.10,2013-09-27 18:11:00,
2013-09-27 13:26:00,75.7,60.0,29.55,North,5,0.0,3.0,58,0.00,,,0.00,weatherlink.com 1.10,2013-09-27 18:26:00,
2013-09-27 13:41:00,75.4,60.0,29.55,WSW,244,0.0,2.0,59,0.00,,,0.00,weatherlink.com 1.10,2013-09-27 18:41:00,
2013-09-27 13:56:00,75.3,61.0,29.54,West,265,0.0,2.0,61,0.00,,,0.00,weatherlink.com 1.10,2013-09-27 18:56:00,
2013-09-27 14:11:00,75.4,59.0,29.54,WSW,248,0.0,2.0,58,0.00,,,0.00,weatherlink.com 1.10,2013-09-27 19:11:00,
2013-09-27 14:26:00,75.5,64.0,29.53,WSW,250,0.0,2.0,67,0.00,,,0.00,weatherlink.com 1.10,2013-09-27 19:26:00,
2013-09-27 14:41:00,75.7,61.0,29.52,West,263,0.0,1.0,61,0.00,,,0.00,weatherlink.com 1.10,2013-09-27 19:41:00,
2013-09-27 14:56:00,75.9,64.0,29.52,SSW,202,0.0,1.0,67,0.00,,,0.00,weatherlink.com 1.10,2013-09-27 19:56:00,
2013-09-27 15:11:00,75.5,62.0,29.52,NW,321,0.0,2.0,64,0.00,,,0.00,weatherlink.com 1.10,2013-09-27 20:11:00,
2013-09-27 15:26:00,75.4,63.0,29.52,WNW,287,0.0,1.0,66,0.00,,,0.00,weatherlink.com 1.10,2013-09-27 20:26:00,
2013-09-27 15:41:00,74.9,61.0,29.52,NW,325,0.0,1.0,63,0.00,,,0.00,weatherlink.com 1.10,2013-09-27 20:41:00,
2013-09-27 15:56:00,74.9,63.0,29.52,NW,325,0.0,3.0,66,0.00,,,0.00,weatherlink.com 1.10,2013-09-27 20:56:00,
2013-09-27 16:11:00,74.7,65.0,29.52,West,271,0.0,2.0,71,0.00,,,0.00,weatherlink.com 1.10,2013-09-27 21:11:00,
2013-09-27 16:26:00,74.2,63.0,29.52,SSE,148,0.0,2.0,69,0.00,,,0.00,weatherlink.com 1.10,2013-09-27 21:26:00,
2013-09-27 16:41:00,73.6,64.0,29.52,WNW,285,0.0,1.0,72,0.00,,,0.00,weatherlink.com 1.10,2013-09-27 21:41:00,
2013-09-27 16:56:00,73.2,64.0,29.52,NNW,338,0.0,2.0,73,0.00,,,0.00,weatherlink.com 1.10,2013-09-27 21:56:00,
2013-09-27 17:11:00,72.5,65.0,29.52,NW,316,0.0,1.0,76,0.00,,,0.00,weatherlink.com 1.10,2013-09-27 22:11:00,
2013-09-27 17:26:00,72.0,65.0,29.52,NW,316,0.0,0.0,79,0.00,,,0.00,weatherlink.com 1.10,2013-09-27 22:26:00,
2013-09-27 17:41:00,71.2,65.0,29.52,NW,316,0.0,0.0,81,0.00,,,0.00,weatherlink.com 1.10,2013-09-27 22:41:00,
2013-09-27 17:56:00,70.3,65.0,29.52,NW,316,0.0,0.0,82,0.00,,,0.00,weatherlink.com 1.10,2013-09-27 22:56:00,
2013-09-27 18:11:00,69.5,64.0,29.52,NW,316,0.0,0.0,83,0.00,,,0.00,weatherlink.com 1.10,2013-09-27 23:11:00,
2013-09-27 18:26:00,68.6,63.0,29.52,NW,316,0.0,0.0,83,0.00,,,0.00,weatherlink.com 1.10,2013-09-27 23:26:00,
2013-09-27 18:41:00,67.4,62.0,29.52,NW,316,0.0,0.0,83,0.00,,,0.00,weatherlink.com 1.10,2013-09-27 23:41:00,
2013-09-27 18:56:00,66.2,62.0,29.52,NW,316,0.0,0.0,85,0.00,,,0.00,weatherlink.com 1.10,2013-09-27 23:56:00,
2013-09-27 19:11:00,65.2,61.0,29.53,NW,316,0.0,0.0,86,0.00,,,0.00,weatherlink.com 1.10,2013-09-28 00:11:00,
2013-09-27 19:26:00,64.4,61.0,29.53,NW,316,0.0,0.0,87,0.00,,,0.00,weatherlink.com 1.10,2013-09-28 00:26:00,
2013-09-27 19:41:00,63.6,60.0,29.54,NW,316,0.0,0.0,88,0.00,,,0.00,weatherlink.com 1.10,2013-09-28 00:41:00,
2013-09-27 19:56:00,63.1,60.0,29.54,NW,316,0.0,0.0,89,0.00,,,0.00,weatherlink.com 1.10,2013-09-28 00:56:00,
2013-09-27 20:11:00,62.6,60.0,29.55,NW,316,0.0,0.0,90,0.00,,,0.00,weatherlink.com 1.10,2013-09-28 01:11:00,
2013-09-27 20:26:00,62.2,60.0,29.55,NW,316,0.0,0.0,91,0.00,,,0.00,weatherlink.com 1.10,2013-09-28 01:26:00,
2013-09-27 20:41:00,61.8,59.0,29.56,NW,316,0.0,0.0,91,0.00,,,0.00,weatherlink.com 1.10,2013-09-28 01:41:00,
2013-09-27 20:56:00,61.4,59.0,29.56,NW,316,0.0,0.0,91,0.00,,,0.00,weatherlink.com 1.10,2013-09-28 01:56:00,
2013-09-27 21:11:00,61.0,59.0,29.57,NW,316,0.0,0.0,92,0.00,,,0.00,weatherlink.com 1.10,2013-09-28 02:11:00,
2013-09-27 21:26:00,60.6,58.0,29.57,NW,316,0.0,0.0,92,0.00,,,0.00,weatherlink.com 1.10,2013-09-28 02:26:00,
2013-09-27 21:41:00,60.3,58.0,29.57,NW,316,0.0,0.0,92,0.00,,,0.00,weatherlink.com 1.10,2013-09-28 02:41:00,
2013-09-27 21:56:00,59.9,58.0,29.57,NW,316,0.0,0.0,92,0.00,,,0.00,weatherlink.com 1.10,2013-09-28 02:56:00,
2013-09-27 22:11:00,59.5,58.0,29.58,NW,316,0.0,0.0,93,0.00,,,0.00,weatherlink.com 1.10,2013-09-28 03:11:00,
2013-09-27 22:26:00,59.3,57.0,29.58,NW,316,0.0,0.0,93,0.00,,,0.00,weatherlink.com 1.10,2013-09-28 03:26:00,
2013-09-27 22:41:00,59.0,57.0,29.58,NW,316,0.0,0.0,93,0.00,,,0.00,weatherlink.com 1.10,2013-09-28 03:41:00,
2013-09-27 22:56:00,58.7,57.0,29.58,NW,316,0.0,0.0,93,0.00,,,0.00,weatherlink.com 1.10,2013-09-28 03:56:00,
2013-09-27 23:11:00,58.4,56.0,29.59,NW,316,0.0,0.0,93,0.00,,,0.00,weatherlink.com 1.10,2013-09-28 04:11:00,
2013-09-27 23:26:00,58.2,56.0,29.58,NW,316,0.0,0.0,93,0.00,,,0.00,weatherlink.com 1.10,2013-09-28 04:26:00,
2013-09-27 23:41:00,57.8,56.0,29.58,NW,316,0.0,0.0,93,0.00,,,0.00,weatherlink.com 1.10,2013-09-28 04:41:00,
2013-09-27 23:56:00,57.6,56.0,29.59,NW,316,0.0,0.0,94,0.00,,,0.00,weatherlink.com 1.10,2013-09-28 04:56:00,